contact:dominique.lefevre@mio.osupytheas.fr, maurice.libes@osupytheas.fr, didier.mallarino@osupytheas.fr
Project:EMSO http://www.emso-fr.org/EMSO-France
Depth: 2436.0 m
Title:EMSO Ligure Ouest : Data MII capteur MICROCAT
DateTime_Computer,Latitude,Longitude,Temperature,Conductivity,Pressure,DateTime_Instrument
DateTime_Computer,Latitude,Longitude,degC,S m-1,dbar,DateTime_Instrument
2019-07-27T00:02:27Z,42.805,6.029,13.2955,4.59951,2469.876,2019-7-27T02:02:46Z
2019-07-27T00:05:30Z,42.805,6.029,13.2951,4.59951,2469.867,2019-7-27T02:05:49Z
2019-07-27T00:08:33Z,42.805,6.029,13.2953,4.59950,2469.853,2019-7-27T02:08:52Z
2019-07-27T00:11:36Z,42.805,6.029,13.2955,4.59951,2469.876,2019-7-27T02:11:55Z
2019-07-27T00:14:39Z,42.805,6.029,13.2954,4.59951,2469.89,2019-7-27T02:14:59Z
2019-07-27T00:17:43Z,42.805,6.029,13.2953,4.59951,2469.876,2019-7-27T02:18:02Z
2019-07-27T00:20:46Z,42.805,6.029,13.2951,4.59951,2469.876,2019-7-27T02:21:05Z
2019-07-27T00:23:49Z,42.805,6.029,13.2953,4.59950,2469.876,2019-7-27T02:24:08Z
2019-07-27T00:26:52Z,42.805,6.029,13.2953,4.59951,2469.89,2019-7-27T02:27:11Z
2019-07-27T00:29:55Z,42.805,6.029,13.2951,4.59950,2469.853,2019-7-27T02:30:15Z
2019-07-27T00:32:59Z,42.805,6.029,13.2953,4.59951,2469.853,2019-7-27T02:33:18Z
2019-07-27T00:36:02Z,42.805,6.029,13.2952,4.59950,2469.9,2019-7-27T02:36:21Z
2019-07-27T00:39:05Z,42.805,6.029,13.2953,4.59951,2469.876,2019-7-27T02:39:24Z
2019-07-27T00:42:08Z,42.805,6.029,13.2951,4.59951,2469.876,2019-7-27T02:42:27Z
2019-07-27T00:45:11Z,42.805,6.029,13.2954,4.59951,2469.914,2019-7-27T02:45:31Z
2019-07-27T00:48:15Z,42.805,6.029,13.2953,4.59951,2469.914,2019-7-27T02:48:34Z
2019-07-27T00:51:18Z,42.805,6.029,13.2952,4.59950,2469.923,2019-7-27T02:51:37Z
2019-07-27T00:54:21Z,42.805,6.029,13.2953,4.59950,2469.853,2019-7-27T02:54:40Z
2019-07-27T00:57:24Z,42.805,6.029,13.2957,4.59950,2469.9,2019-7-27T02:57:44Z
2019-07-27T01:00:27Z,42.805,6.029,13.2956,4.59951,2469.876,2019-7-27T03:00:47Z
2019-07-27T01:03:31Z,42.805,6.029,13.2952,4.59950,2469.9,2019-7-27T03:03:50Z
2019-07-27T01:06:34Z,42.805,6.029,13.2954,4.59950,2469.876,2019-7-27T03:06:53Z
2019-07-27T01:09:37Z,42.805,6.029,13.2951,4.59950,2469.89,2019-7-27T03:09:56Z
2019-07-27T01:12:40Z,42.805,6.029,13.2948,4.59951,2469.9,2019-7-27T03:12:59Z
2019-07-27T01:15:43Z,42.805,6.029,13.2951,4.59950,2469.9,2019-7-27T03:16:03Z
2019-07-27T01:18:47Z,42.805,6.029,13.2951,4.59951,2469.9,2019-7-27T03:19:06Z
2019-07-27T01:21:50Z,42.805,6.029,13.2954,4.59952,2469.923,2019-7-27T03:22:09Z
2019-07-27T01:24:53Z,42.805,6.029,13.2955,4.59951,2469.9,2019-7-27T03:25:12Z
2019-07-27T01:27:56Z,42.805,6.029,13.2949,4.59951,2469.876,2019-7-27T03:28:16Z
2019-07-27T01:30:59Z,42.805,6.029,13.2952,4.59950,2469.9,2019-7-27T03:31:19Z
2019-07-27T01:34:03Z,42.805,6.029,13.2951,4.59951,2469.853,2019-7-27T03:34:22Z
2019-07-27T01:37:06Z,42.805,6.029,13.2953,4.59951,2469.9,2019-7-27T03:37:25Z
2019-07-27T01:40:09Z,42.805,6.029,13.2952,4.59951,2469.937,2019-7-27T03:40:28Z
2019-07-27T01:43:12Z,42.805,6.029,13.2950,4.59951,2469.9,2019-7-27T03:43:32Z
2019-07-27T01:46:16Z,42.805,6.029,13.2951,4.59950,2469.9,2019-7-27T03:46:35Z
2019-07-27T01:49:19Z,42.805,6.029,13.2953,4.59951,2469.937,2019-7-27T03:49:38Z
2019-07-27T01:52:22Z,42.805,6.029,13.2953,4.59951,2469.89,2019-7-27T03:52:41Z
2019-07-27T01:55:25Z,42.805,6.029,13.2952,4.59952,2469.923,2019-7-27T03:55:44Z
2019-07-27T01:58:28Z,42.805,6.029,13.2953,4.59950,2469.914,2019-7-27T03:58:47Z
2019-07-27T02:01:31Z,42.805,6.029,13.2955,4.59950,2469.9,2019-7-27T04:01:51Z
2019-07-27T02:04:35Z,42.805,6.029,13.2955,4.59950,2469.914,2019-7-27T04:04:54Z
2019-07-27T02:07:38Z,42.805,6.029,13.2953,4.59950,2469.914,2019-7-27T04:07:57Z
2019-07-27T02:10:41Z,42.805,6.029,13.2952,4.59951,2469.914,2019-7-27T04:11:00Z
2019-07-27T02:13:44Z,42.805,6.029,13.2954,4.59951,2469.9,2019-7-27T04:14:03Z
2019-07-27T02:16:47Z,42.805,6.029,13.2953,4.59951,2469.876,2019-7-27T04:17:07Z
2019-07-27T02:19:51Z,42.805,6.029,13.2953,4.59951,2469.876,2019-7-27T04:20:10Z
2019-07-27T02:22:54Z,42.805,6.029,13.2954,4.59951,2469.9,2019-7-27T04:23:13Z
2019-07-27T02:25:57Z,42.805,6.029,13.2951,4.59951,2469.9,2019-7-27T04:26:16Z
2019-07-27T02:29:00Z,42.805,6.029,13.2949,4.59950,2469.9,2019-7-27T04:29:19Z
2019-07-27T02:32:03Z,42.805,6.029,13.2952,4.59951,2469.89,2019-7-27T04:32:23Z
2019-07-27T02:35:07Z,42.805,6.029,13.2954,4.59950,2469.9,2019-7-27T04:35:26Z
2019-07-27T02:38:10Z,42.805,6.029,13.2954,4.59951,2469.89,2019-7-27T04:38:29Z
2019-07-27T02:41:13Z,42.805,6.029,13.2956,4.59952,2469.9,2019-7-27T04:41:32Z
2019-07-27T02:44:16Z,42.805,6.029,13.2955,4.59951,2469.9,2019-7-27T04:44:35Z
2019-07-27T02:47:19Z,42.805,6.029,13.2952,4.59951,2469.853,2019-7-27T04:47:38Z
2019-07-27T02:50:22Z,42.805,6.029,13.2953,4.59951,2469.876,2019-7-27T04:50:42Z
2019-07-27T02:53:26Z,42.805,6.029,13.2953,4.59951,2469.89,2019-7-27T04:53:45Z
2019-07-27T02:56:29Z,42.805,6.029,13.2954,4.59951,2469.923,2019-7-27T04:56:48Z
2019-07-27T02:59:32Z,42.805,6.029,13.2954,4.59951,2469.914,2019-7-27T04:59:51Z
2019-07-27T03:02:35Z,42.805,6.029,13.2950,4.59952,2469.876,2019-7-27T05:02:55Z
2019-07-27T03:05:38Z,42.805,6.029,13.2955,4.59952,2469.876,2019-7-27T05:05:58Z
2019-07-27T03:08:42Z,42.805,6.029,13.2956,4.59951,2469.9,2019-7-27T05:09:01Z
2019-07-27T03:11:45Z,42.805,6.029,13.2953,4.59951,2469.876,2019-7-27T05:12:04Z
2019-07-27T03:14:48Z,42.805,6.029,13.2955,4.59951,2469.876,2019-7-27T05:15:07Z
2019-07-27T03:17:51Z,42.805,6.029,13.2954,4.59950,2469.9,2019-7-27T05:18:11Z
2019-07-27T03:20:54Z,42.805,6.029,13.2952,4.59951,2469.914,2019-7-27T05:21:14Z
2019-07-27T03:23:58Z,42.805,6.029,13.2953,4.59951,2469.876,2019-7-27T05:24:17Z
2019-07-27T03:27:01Z,42.805,6.029,13.2952,4.59951,2469.923,2019-7-27T05:27:20Z
2019-07-27T03:30:04Z,42.805,6.029,13.2955,4.59950,2469.867,2019-7-27T05:30:23Z
2019-07-27T03:33:07Z,42.805,6.029,13.2953,4.59951,2469.89,2019-7-27T05:33:27Z
2019-07-27T03:36:10Z,42.805,6.029,13.2953,4.59951,2469.9,2019-7-27T05:36:30Z
2019-07-27T03:39:14Z,42.805,6.029,13.2950,4.59951,2469.914,2019-7-27T05:39:33Z
2019-07-27T03:42:17Z,42.805,6.029,13.2951,4.59951,2469.867,2019-7-27T05:42:36Z
2019-07-27T03:45:20Z,42.805,6.029,13.2950,4.59952,2469.876,2019-7-27T05:45:39Z
2019-07-27T03:48:23Z,42.805,6.029,13.2953,4.59951,2469.853,2019-7-27T05:48:43Z
2019-07-27T03:51:26Z,42.805,6.029,13.2952,4.59951,2469.9,2019-7-27T05:51:46Z
2019-07-27T03:54:30Z,42.805,6.029,13.2953,4.59951,2469.89,2019-7-27T05:54:49Z
2019-07-27T03:57:33Z,42.805,6.029,13.2952,4.59953,2469.876,2019-7-27T05:57:52Z
2019-07-27T04:00:36Z,42.805,6.029,13.2955,4.59952,2469.867,2019-7-27T06:00:55Z
2019-07-27T04:03:39Z,42.805,6.029,13.2951,4.59951,2469.876,2019-7-27T06:03:59Z
2019-07-27T04:06:43Z,42.805,6.029,13.2957,4.59951,2469.89,2019-7-27T06:07:02Z
2019-07-27T04:09:46Z,42.805,6.029,13.2953,4.59951,2469.89,2019-7-27T06:10:05Z
2019-07-27T04:12:49Z,42.805,6.029,13.2952,4.59951,2469.9,2019-7-27T06:13:08Z
2019-07-27T04:15:52Z,42.805,6.029,13.2953,4.59951,2469.914,2019-7-27T06:16:11Z
2019-07-27T04:18:56Z,42.805,6.029,13.2956,4.59953,2469.876,2019-7-27T06:19:15Z
2019-07-27T04:21:59Z,42.805,6.029,13.2955,4.59951,2469.876,2019-7-27T06:22:18Z
2019-07-27T04:25:02Z,42.805,6.029,13.2951,4.59951,2469.914,2019-7-27T06:25:21Z
2019-07-27T04:28:05Z,42.805,6.029,13.2956,4.59951,2469.876,2019-7-27T06:28:24Z
2019-07-27T04:31:08Z,42.805,6.029,13.2956,4.59953,2469.876,2019-7-27T06:31:28Z
2019-07-27T04:34:12Z,42.805,6.029,13.2953,4.59953,2469.844,2019-7-27T06:34:31Z
2019-07-27T04:37:15Z,42.805,6.029,13.2950,4.59953,2469.89,2019-7-27T06:37:34Z
2019-07-27T04:40:18Z,42.805,6.029,13.2950,4.59954,2469.9,2019-7-27T06:40:37Z
2019-07-27T04:43:21Z,42.805,6.029,13.2953,4.59951,2469.853,2019-7-27T06:43:41Z
2019-07-27T04:46:24Z,42.805,6.029,13.2956,4.59952,2469.867,2019-7-27T06:46:44Z
2019-07-27T04:49:28Z,42.805,6.029,13.2957,4.59952,2469.839,2019-7-27T06:49:47Z
2019-07-27T04:52:31Z,42.805,6.029,13.2955,4.59953,2469.89,2019-7-27T06:52:50Z
2019-07-27T04:55:34Z,42.805,6.029,13.2950,4.59951,2469.867,2019-7-27T06:55:53Z
2019-07-27T04:58:37Z,42.805,6.029,13.2956,4.59953,2469.853,2019-7-27T06:58:57Z
2019-07-27T05:01:40Z,42.805,6.029,13.2953,4.59954,2469.89,2019-7-27T07:02:00Z
2019-07-27T05:04:44Z,42.805,6.029,13.2953,4.59952,2469.9,2019-7-27T07:05:03Z
2019-07-27T05:07:47Z,42.805,6.029,13.2954,4.59951,2469.89,2019-7-27T07:08:06Z
2019-07-27T05:10:50Z,42.805,6.029,13.2951,4.59952,2469.867,2019-7-27T07:11:09Z
2019-07-27T05:13:53Z,42.805,6.029,13.2953,4.59951,2469.83,2019-7-27T07:14:12Z
2019-07-27T05:16:56Z,42.805,6.029,13.2952,4.59952,2469.83,2019-7-27T07:17:16Z
2019-07-27T05:20:00Z,42.805,6.029,13.2954,4.59951,2469.867,2019-7-27T07:20:19Z
2019-07-27T05:23:03Z,42.805,6.029,13.2953,4.59952,2469.853,2019-7-27T07:23:22Z
2019-07-27T05:26:06Z,42.805,6.029,13.2954,4.59953,2469.83,2019-7-27T07:26:25Z
2019-07-27T05:29:10Z,42.805,6.029,13.2955,4.59952,2469.867,2019-7-27T07:29:29Z
2019-07-27T05:32:13Z,42.805,6.029,13.2950,4.59952,2469.844,2019-7-27T07:32:32Z
2019-07-27T05:35:16Z,42.805,6.029,13.2957,4.59952,2469.853,2019-7-27T07:35:35Z
2019-07-27T05:38:19Z,42.805,6.029,13.2954,4.59951,2469.89,2019-7-27T07:38:38Z
2019-07-27T05:41:22Z,42.805,6.029,13.2958,4.59951,2469.876,2019-7-27T07:41:42Z
2019-07-27T05:44:26Z,42.805,6.029,13.2953,4.59952,2469.83,2019-7-27T07:44:45Z
2019-07-27T05:47:29Z,42.805,6.029,13.2953,4.59951,2469.844,2019-7-27T07:47:48Z
2019-07-27T05:50:32Z,42.805,6.029,13.2954,4.59953,2469.853,2019-7-27T07:50:51Z
2019-07-27T05:53:35Z,42.805,6.029,13.2953,4.59951,2469.844,2019-7-27T07:53:54Z
2019-07-27T05:56:39Z,42.805,6.029,13.2950,4.59951,2469.853,2019-7-27T07:56:58Z
2019-07-27T05:59:42Z,42.805,6.029,13.2957,4.59953,2469.83,2019-7-27T08:00:01Z
2019-07-27T06:02:45Z,42.805,6.029,13.2952,4.59954,2469.844,2019-7-27T08:03:04Z
2019-07-27T06:05:48Z,42.805,6.029,13.2952,4.59951,2469.821,2019-7-27T08:06:08Z
2019-07-27T06:08:52Z,42.805,6.029,13.2953,4.59952,2469.83,2019-7-27T08:09:11Z
2019-07-27T06:11:55Z,42.805,6.029,13.2956,4.59953,2469.83,2019-7-27T08:12:14Z
2019-07-27T06:14:58Z,42.805,6.029,13.2952,4.59953,2469.83,2019-7-27T08:15:17Z
2019-07-27T06:18:01Z,42.805,6.029,13.2953,4.59952,2469.853,2019-7-27T08:18:20Z
2019-07-27T06:21:04Z,42.805,6.029,13.2953,4.59951,2469.806,2019-7-27T08:21:24Z
2019-07-27T06:24:08Z,42.805,6.029,13.2955,4.59952,2469.83,2019-7-27T08:24:27Z
2019-07-27T06:27:11Z,42.805,6.029,13.2952,4.59951,2469.83,2019-7-27T08:27:30Z
2019-07-27T06:30:14Z,42.805,6.029,13.2952,4.59953,2469.83,2019-7-27T08:30:33Z
2019-07-27T06:33:17Z,42.805,6.029,13.2957,4.59954,2469.821,2019-7-27T08:33:36Z
2019-07-27T06:36:20Z,42.805,6.029,13.2957,4.59954,2469.83,2019-7-27T08:36:40Z
2019-07-27T06:39:24Z,42.805,6.029,13.2954,4.59952,2469.83,2019-7-27T08:39:43Z
2019-07-27T06:42:27Z,42.805,6.029,13.2950,4.59955,2469.83,2019-7-27T08:42:46Z
2019-07-27T06:45:30Z,42.805,6.029,13.2953,4.59952,2469.821,2019-7-27T08:45:49Z
2019-07-27T06:48:33Z,42.805,6.029,13.2952,4.59954,2469.83,2019-7-27T08:48:52Z
2019-07-27T06:51:36Z,42.805,6.029,13.2955,4.59951,2469.797,2019-7-27T08:51:56Z
2019-07-27T06:54:40Z,42.805,6.029,13.2957,4.59953,2469.83,2019-7-27T08:54:59Z
2019-07-27T06:57:43Z,42.805,6.029,13.2955,4.59954,2469.806,2019-7-27T08:58:02Z
2019-07-27T07:00:46Z,42.805,6.029,13.2955,4.59951,2469.821,2019-7-27T09:01:05Z
2019-07-27T07:03:49Z,42.805,6.029,13.2957,4.59952,2469.806,2019-7-27T09:04:08Z
2019-07-27T07:06:52Z,42.805,6.029,13.2953,4.59951,2469.773,2019-7-27T09:07:12Z
2019-07-27T07:09:56Z,42.805,6.029,13.2953,4.59955,2469.783,2019-7-27T09:10:15Z
2019-07-27T07:12:59Z,42.805,6.029,13.2955,4.59951,2469.821,2019-7-27T09:13:18Z
2019-07-27T07:16:02Z,42.805,6.029,13.2955,4.59953,2469.83,2019-7-27T09:16:21Z
2019-07-27T07:19:05Z,42.805,6.029,13.2951,4.59953,2469.797,2019-7-27T09:19:24Z
2019-07-27T07:22:08Z,42.805,6.029,13.2952,4.59952,2469.821,2019-7-27T09:22:28Z
2019-07-27T07:25:11Z,42.805,6.029,13.2952,4.59951,2469.806,2019-7-27T09:25:31Z
2019-07-27T07:28:15Z,42.805,6.029,13.2956,4.59951,2469.797,2019-7-27T09:28:34Z
2019-07-27T07:31:18Z,42.805,6.029,13.2952,4.59953,2469.797,2019-7-27T09:31:37Z
2019-07-27T07:34:21Z,42.805,6.029,13.2953,4.59952,2469.783,2019-7-27T09:34:41Z
2019-07-27T07:37:25Z,42.805,6.029,13.2956,4.59954,2469.773,2019-7-27T09:37:44Z
2019-07-27T07:40:28Z,42.805,6.029,13.2951,4.59953,2469.783,2019-7-27T09:40:47Z
2019-07-27T07:43:31Z,42.805,6.029,13.2957,4.59951,2469.83,2019-7-27T09:43:50Z
2019-07-27T07:46:34Z,42.805,6.029,13.2954,4.59954,2469.76,2019-7-27T09:46:53Z
2019-07-27T07:49:37Z,42.805,6.029,13.2953,4.59951,2469.806,2019-7-27T09:49:57Z
2019-07-27T07:52:41Z,42.805,6.029,13.2955,4.59952,2469.76,2019-7-27T09:53:00Z
2019-07-27T07:55:44Z,42.805,6.029,13.2953,4.59951,2469.821,2019-7-27T09:56:03Z
2019-07-27T07:58:47Z,42.805,6.029,13.2952,4.59951,2469.783,2019-7-27T09:59:06Z
2019-07-27T08:01:50Z,42.805,6.029,13.2953,4.59952,2469.821,2019-7-27T10:02:10Z
2019-07-27T08:04:53Z,42.805,6.029,13.2954,4.59952,2469.806,2019-7-27T10:05:13Z
2019-07-27T08:07:57Z,42.805,6.029,13.2954,4.59953,2469.76,2019-7-27T10:08:16Z
2019-07-27T08:11:00Z,42.805,6.029,13.2957,4.59953,2469.76,2019-7-27T10:11:19Z
2019-07-27T08:14:03Z,42.805,6.029,13.2952,4.59952,2469.797,2019-7-27T10:14:22Z
2019-07-27T08:17:06Z,42.805,6.029,13.2951,4.59951,2469.797,2019-7-27T10:17:26Z
2019-07-27T08:20:10Z,42.805,6.029,13.2956,4.59953,2469.797,2019-7-27T10:20:29Z
2019-07-27T08:23:13Z,42.805,6.029,13.2956,4.59952,2469.783,2019-7-27T10:23:32Z
2019-07-27T08:26:16Z,42.805,6.029,13.2953,4.59952,2469.797,2019-7-27T10:26:35Z
2019-07-27T08:29:19Z,42.805,6.029,13.2956,4.59951,2469.773,2019-7-27T10:29:38Z
2019-07-27T08:32:22Z,42.805,6.029,13.2953,4.59953,2469.773,2019-7-27T10:32:42Z
2019-07-27T08:35:26Z,42.805,6.029,13.2958,4.59954,2469.797,2019-7-27T10:35:45Z
2019-07-27T08:38:29Z,42.805,6.029,13.2953,4.59954,2469.76,2019-7-27T10:38:48Z
2019-07-27T08:41:32Z,42.805,6.029,13.2953,4.59953,2469.797,2019-7-27T10:41:51Z
2019-07-27T08:44:35Z,42.805,6.029,13.2957,4.59954,2469.797,2019-7-27T10:44:55Z
2019-07-27T08:47:38Z,42.805,6.029,13.2952,4.59952,2469.783,2019-7-27T10:47:58Z
2019-07-27T08:50:42Z,42.805,6.029,13.2953,4.59953,2469.76,2019-7-27T10:51:01Z
2019-07-27T08:53:45Z,42.805,6.029,13.2955,4.59952,2469.773,2019-7-27T10:54:04Z
2019-07-27T08:56:48Z,42.805,6.029,13.2957,4.59954,2469.821,2019-7-27T10:57:07Z
2019-07-27T08:59:51Z,42.805,6.029,13.2953,4.59953,2469.75,2019-7-27T11:00:11Z
2019-07-27T09:02:54Z,42.805,6.029,13.2953,4.59951,2469.783,2019-7-27T11:03:14Z
2019-07-27T09:05:58Z,42.805,6.029,13.2951,4.59954,2469.783,2019-7-27T11:06:17Z
2019-07-27T09:09:01Z,42.805,6.029,13.2955,4.59951,2469.773,2019-7-27T11:09:20Z
2019-07-27T09:12:04Z,42.805,6.029,13.2957,4.59953,2469.773,2019-7-27T11:12:23Z
2019-07-27T09:15:07Z,42.805,6.029,13.2954,4.59952,2469.773,2019-7-27T11:15:27Z
2019-07-27T09:18:10Z,42.805,6.029,13.2954,4.59953,2469.783,2019-7-27T11:18:30Z
2019-07-27T09:21:14Z,42.805,6.029,13.2958,4.59951,2469.773,2019-7-27T11:21:33Z
2019-07-27T09:24:17Z,42.805,6.029,13.2956,4.59952,2469.806,2019-7-27T11:24:36Z
2019-07-27T09:27:20Z,42.805,6.029,13.2954,4.59952,2469.806,2019-7-27T11:27:40Z
2019-07-27T09:30:23Z,42.805,6.029,13.2948,4.59954,2469.783,2019-7-27T11:30:43Z
2019-07-27T09:33:27Z,42.805,6.029,13.2952,4.59951,2469.773,2019-7-27T11:33:46Z
2019-07-27T09:36:30Z,42.805,6.029,13.2950,4.59953,2469.773,2019-7-27T11:36:49Z
2019-07-27T09:39:33Z,42.805,6.029,13.2957,4.59952,2469.737,2019-7-27T11:39:52Z
2019-07-27T09:42:36Z,42.805,6.029,13.2954,4.59951,2469.75,2019-7-27T11:42:56Z
2019-07-27T09:45:39Z,42.805,6.029,13.2953,4.59952,2469.76,2019-7-27T11:45:59Z
2019-07-27T09:48:43Z,42.805,6.029,13.2956,4.59951,2469.75,2019-7-27T11:49:02Z
2019-07-27T09:51:46Z,42.805,6.029,13.2958,4.59952,2469.773,2019-7-27T11:52:05Z
2019-07-27T09:54:49Z,42.805,6.029,13.2955,4.59952,2469.773,2019-7-27T11:55:09Z
2019-07-27T09:57:53Z,42.805,6.029,13.2952,4.59952,2469.773,2019-7-27T11:58:12Z
2019-07-27T10:00:56Z,42.805,6.029,13.2955,4.59952,2469.783,2019-7-27T12:01:15Z
2019-07-27T10:03:59Z,42.805,6.029,13.2957,4.59952,2469.773,2019-7-27T12:04:18Z
2019-07-27T10:07:02Z,42.805,6.029,13.2958,4.59954,2469.76,2019-7-27T12:07:21Z
2019-07-27T10:10:05Z,42.805,6.029,13.2953,4.59954,2469.773,2019-7-27T12:10:24Z
2019-07-27T10:13:08Z,42.805,6.029,13.2955,4.59952,2469.783,2019-7-27T12:13:28Z
2019-07-27T10:16:12Z,42.805,6.029,13.2956,4.59951,2469.737,2019-7-27T12:16:31Z
2019-07-27T10:19:15Z,42.805,6.029,13.2953,4.59954,2469.773,2019-7-27T12:19:34Z
2019-07-27T10:22:18Z,42.805,6.029,13.2953,4.59952,2469.773,2019-7-27T12:22:37Z
2019-07-27T10:25:22Z,42.805,6.029,13.2954,4.59953,2469.76,2019-7-27T12:25:41Z
2019-07-27T10:28:25Z,42.805,6.029,13.2952,4.59953,2469.783,2019-7-27T12:28:44Z
2019-07-27T10:31:28Z,42.805,6.029,13.2959,4.59953,2469.783,2019-7-27T12:31:47Z
2019-07-27T10:34:31Z,42.805,6.029,13.2954,4.59953,2469.76,2019-7-27T12:34:50Z
2019-07-27T10:37:34Z,42.805,6.029,13.2954,4.59954,2469.797,2019-7-27T12:37:54Z
2019-07-27T10:40:38Z,42.805,6.029,13.2955,4.59952,2469.773,2019-7-27T12:40:57Z
2019-07-27T10:43:41Z,42.805,6.029,13.2958,4.59953,2469.773,2019-7-27T12:44:00Z
2019-07-27T10:46:44Z,42.805,6.029,13.2953,4.59953,2469.76,2019-7-27T12:47:04Z
2019-07-27T10:49:48Z,42.805,6.029,13.2954,4.59953,2469.76,2019-7-27T12:50:07Z
2019-07-27T10:52:51Z,42.805,6.029,13.2953,4.59953,2469.76,2019-7-27T12:53:10Z
2019-07-27T10:55:54Z,42.805,6.029,13.2953,4.59952,2469.783,2019-7-27T12:56:13Z
2019-07-27T10:58:57Z,42.805,6.029,13.2954,4.59952,2469.76,2019-7-27T12:59:16Z
2019-07-27T11:02:00Z,42.805,6.029,13.2949,4.59953,2469.783,2019-7-27T13:02:20Z
2019-07-27T11:05:04Z,42.805,6.029,13.2953,4.59952,2469.797,2019-7-27T13:05:23Z
2019-07-27T11:08:07Z,42.805,6.029,13.2954,4.59952,2469.76,2019-7-27T13:08:26Z
2019-07-27T11:11:10Z,42.805,6.029,13.2959,4.59952,2469.773,2019-7-27T13:11:29Z
2019-07-27T11:14:13Z,42.805,6.029,13.2957,4.59952,2469.783,2019-7-27T13:14:33Z
2019-07-27T11:17:16Z,42.805,6.029,13.2953,4.59953,2469.783,2019-7-27T13:17:36Z
2019-07-27T11:20:20Z,42.805,6.029,13.2957,4.59952,2469.821,2019-7-27T13:20:39Z
2019-07-27T11:23:23Z,42.805,6.029,13.2957,4.59952,2469.76,2019-7-27T13:23:42Z
2019-07-27T11:26:26Z,42.805,6.029,13.2956,4.59952,2469.797,2019-7-27T13:26:45Z
2019-07-27T11:29:29Z,42.805,6.029,13.2955,4.59952,2469.783,2019-7-27T13:29:48Z
2019-07-27T11:32:32Z,42.805,6.029,13.2952,4.59952,2469.783,2019-7-27T13:32:52Z
2019-07-27T11:35:36Z,42.805,6.029,13.2953,4.59952,2469.769,2019-7-27T13:35:55Z
2019-07-27T11:38:39Z,42.805,6.029,13.2957,4.59954,2469.806,2019-7-27T13:38:58Z
2019-07-27T11:41:42Z,42.805,6.029,13.2957,4.59953,2469.844,2019-7-27T13:42:01Z
2019-07-27T11:44:45Z,42.805,6.029,13.2956,4.59954,2469.821,2019-7-27T13:45:04Z
2019-07-27T11:47:48Z,42.805,6.029,13.2959,4.59954,2469.783,2019-7-27T13:48:08Z
2019-07-27T11:50:52Z,42.805,6.029,13.2950,4.59953,2469.806,2019-7-27T13:51:11Z
2019-07-27T11:53:55Z,42.805,6.029,13.2954,4.59951,2469.821,2019-7-27T13:54:14Z
2019-07-27T11:56:58Z,42.805,6.029,13.2956,4.59954,2469.783,2019-7-27T13:57:17Z
2019-07-27T12:00:01Z,42.805,6.029,13.2956,4.59953,2469.783,2019-7-27T14:00:21Z
2019-07-27T12:03:05Z,42.805,6.029,13.2956,4.59953,2469.806,2019-7-27T14:03:24Z
2019-07-27T12:06:08Z,42.805,6.029,13.2955,4.59952,2469.83,2019-7-27T14:06:27Z
2019-07-27T12:09:11Z,42.805,6.029,13.2953,4.59952,2469.83,2019-7-27T14:09:30Z
2019-07-27T12:12:14Z,42.805,6.029,13.2952,4.59953,2469.853,2019-7-27T14:12:33Z
2019-07-27T12:15:17Z,42.805,6.029,13.2954,4.59951,2469.876,2019-7-27T14:15:37Z
2019-07-27T12:18:21Z,42.805,6.029,13.2953,4.59952,2469.806,2019-7-27T14:18:40Z
2019-07-27T12:21:24Z,42.805,6.029,13.2952,4.59953,2469.821,2019-7-27T14:21:43Z
2019-07-27T12:24:27Z,42.805,6.029,13.2952,4.59951,2469.797,2019-7-27T14:24:46Z
2019-07-27T12:27:30Z,42.805,6.029,13.2954,4.59953,2469.844,2019-7-27T14:27:49Z
2019-07-27T12:30:33Z,42.805,6.029,13.2952,4.59952,2469.783,2019-7-27T14:30:53Z
2019-07-27T12:33:37Z,42.805,6.029,13.2953,4.59953,2469.83,2019-7-27T14:33:56Z
2019-07-27T12:36:40Z,42.805,6.029,13.2954,4.59952,2469.83,2019-7-27T14:36:59Z
2019-07-27T12:39:43Z,42.805,6.029,13.2956,4.59952,2469.806,2019-7-27T14:40:02Z
2019-07-27T12:42:46Z,42.805,6.029,13.2953,4.59952,2469.853,2019-7-27T14:43:06Z
2019-07-27T12:45:49Z,42.805,6.029,13.2957,4.59952,2469.821,2019-7-27T14:46:09Z
2019-07-27T12:48:53Z,42.805,6.029,13.2953,4.59953,2469.806,2019-7-27T14:49:12Z
2019-07-27T12:51:56Z,42.805,6.029,13.2957,4.59953,2469.83,2019-7-27T14:52:15Z
2019-07-27T12:54:59Z,42.805,6.029,13.2954,4.59953,2469.83,2019-7-27T14:55:18Z
2019-07-27T12:58:02Z,42.805,6.029,13.2955,4.59952,2469.806,2019-7-27T14:58:22Z
2019-07-27T13:01:05Z,42.805,6.029,13.2952,4.59954,2469.853,2019-7-27T15:01:25Z
2019-07-27T13:04:09Z,42.805,6.029,13.2954,4.59951,2469.806,2019-7-27T15:04:28Z
2019-07-27T13:07:12Z,42.805,6.029,13.2953,4.59951,2469.806,2019-7-27T15:07:31Z
2019-07-27T13:10:15Z,42.805,6.029,13.2958,4.59954,2469.83,2019-7-27T15:10:34Z
2019-07-27T13:13:18Z,42.805,6.029,13.2955,4.59953,2469.844,2019-7-27T15:13:38Z
2019-07-27T13:16:21Z,42.805,6.029,13.2953,4.59953,2469.853,2019-7-27T15:16:41Z
2019-07-27T13:19:25Z,42.805,6.029,13.2953,4.59953,2469.867,2019-7-27T15:19:44Z
2019-07-27T13:22:28Z,42.805,6.029,13.2956,4.59953,2469.844,2019-7-27T15:22:47Z
2019-07-27T13:25:31Z,42.805,6.029,13.2955,4.59955,2469.867,2019-7-27T15:25:51Z
2019-07-27T13:28:34Z,42.805,6.029,13.2954,4.59951,2469.83,2019-7-27T15:28:54Z
2019-07-27T13:31:38Z,42.805,6.029,13.2953,4.59952,2469.844,2019-7-27T15:31:57Z
2019-07-27T13:34:41Z,42.805,6.029,13.2957,4.59953,2469.83,2019-7-27T15:35:00Z
2019-07-27T13:37:44Z,42.805,6.029,13.2953,4.59954,2469.839,2019-7-27T15:38:03Z
2019-07-27T13:40:47Z,42.805,6.029,13.2953,4.59953,2469.853,2019-7-27T15:41:07Z
2019-07-27T13:43:50Z,42.805,6.029,13.2956,4.59954,2469.89,2019-7-27T15:44:10Z
2019-07-27T13:46:54Z,42.805,6.029,13.2954,4.59953,2469.853,2019-7-27T15:47:13Z
2019-07-27T13:49:57Z,42.805,6.029,13.2958,4.59953,2469.853,2019-7-27T15:50:16Z
2019-07-27T13:53:00Z,42.805,6.029,13.2954,4.59953,2469.853,2019-7-27T15:53:19Z
2019-07-27T13:56:03Z,42.805,6.029,13.2952,4.59953,2469.867,2019-7-27T15:56:23Z
2019-07-27T13:59:07Z,42.805,6.029,13.2958,4.59953,2469.89,2019-7-27T15:59:26Z
2019-07-27T14:02:10Z,42.805,6.029,13.2956,4.59953,2469.839,2019-7-27T16:02:29Z
2019-07-27T14:05:13Z,42.805,6.029,13.2954,4.59952,2469.83,2019-7-27T16:05:32Z
2019-07-27T14:08:16Z,42.805,6.029,13.2954,4.59953,2469.914,2019-7-27T16:08:35Z
2019-07-27T14:11:19Z,42.805,6.029,13.2956,4.59952,2469.876,2019-7-27T16:11:39Z
2019-07-27T14:14:23Z,42.805,6.029,13.2952,4.59953,2469.853,2019-7-27T16:14:42Z
2019-07-27T14:17:26Z,42.805,6.029,13.2954,4.59952,2469.853,2019-7-27T16:17:45Z
2019-07-27T14:20:29Z,42.805,6.029,13.2959,4.59954,2469.853,2019-7-27T16:20:48Z
2019-07-27T14:23:32Z,42.805,6.029,13.2956,4.59953,2469.867,2019-7-27T16:23:51Z
2019-07-27T14:26:35Z,42.805,6.029,13.2954,4.59953,2469.876,2019-7-27T16:26:55Z
2019-07-27T14:29:39Z,42.805,6.029,13.2953,4.59953,2469.853,2019-7-27T16:29:58Z
2019-07-27T14:32:42Z,42.805,6.029,13.2956,4.59953,2469.83,2019-7-27T16:33:01Z
2019-07-27T14:35:45Z,42.805,6.029,13.2955,4.59953,2469.853,2019-7-27T16:36:04Z
2019-07-27T14:38:48Z,42.805,6.029,13.2954,4.59953,2469.853,2019-7-27T16:39:07Z
2019-07-27T14:41:51Z,42.805,6.029,13.2959,4.59953,2469.83,2019-7-27T16:42:11Z
2019-07-27T14:44:55Z,42.805,6.029,13.2956,4.59953,2469.876,2019-7-27T16:45:14Z
2019-07-27T14:47:58Z,42.805,6.029,13.2953,4.59953,2469.853,2019-7-27T16:48:17Z
2019-07-27T14:51:01Z,42.805,6.029,13.2951,4.59953,2469.876,2019-7-27T16:51:20Z
2019-07-27T14:54:04Z,42.805,6.029,13.2957,4.59952,2469.853,2019-7-27T16:54:24Z
2019-07-27T14:57:07Z,42.805,6.029,13.2954,4.59952,2469.867,2019-7-27T16:57:27Z
2019-07-27T15:00:11Z,42.805,6.029,13.2956,4.59954,2469.876,2019-7-27T17:00:30Z
2019-07-27T15:03:14Z,42.805,6.029,13.2955,4.59952,2469.89,2019-7-27T17:03:33Z
2019-07-27T15:06:17Z,42.805,6.029,13.2954,4.59952,2469.89,2019-7-27T17:06:36Z
2019-07-27T15:09:20Z,42.805,6.029,13.2952,4.59952,2469.876,2019-7-27T17:09:39Z
2019-07-27T15:12:23Z,42.805,6.029,13.2956,4.59952,2469.89,2019-7-27T17:12:43Z
2019-07-27T15:15:27Z,42.805,6.029,13.2955,4.59954,2469.89,2019-7-27T17:15:46Z